Voltar ao catálogo

SL-12 R/B(2)

AtivoGEO
NORAD 25645·ROCKET BODY·🇷🇺 Russia

Lançado Feb 28, 1999 de Baikonur Cosmodrome

Loading…

TLE

AtualizadoSource: Space-Track

Época: Sep 14, 2026, 20:57 UTC

1 25645U 99010D   26257.87355385 -.00000034  00000-0  00000-0 0  9995
2 25645  16.4714   3.6703 0020460 340.0820  32.7249  0.98043079 98582

Acompanhe SL-12 R/B(2) em tempo real com AllMySat

Download on the App Store